Location: Hartford
(41.7640°N, 72.6860°W)
Time: 23:20:06
(UTC-05:00)

ISS - All Passes

Search period start: 06 March 2015 00:00
Search period end: 16 March 2015 01:00
Orbit: 396 x 408 km, 51.6° (Epoch: 06 March)

Date Brightness Start Highest point End Pass type
(mag) Time Alt. Az. Time Alt. Az. Time Alt. Az.
06 Mar - 06:32:46 10° S 06:35:11 20° SE 06:37:39 10° E daylight
06 Mar - 08:08:17 10° WSW 08:11:25 48° NNW 08:14:34 10° NE daylight
06 Mar - 09:46:17 10° NW 09:48:27 16° N 09:50:35 10° NNE daylight
06 Mar - 11:23:42 10° NNW 11:25:48 16° N 11:27:56 10° NE daylight
06 Mar - 12:59:44 10° NW 13:02:51 44° NNE 13:05:59 10° ESE daylight
06 Mar - 14:36:32 10° W 14:39:08 22° SW 14:41:41 10° S daylight
07 Mar - 05:41:58 10° SE 05:42:27 10° SE 05:43:05 10° ESE visible
07 Mar - 07:15:15 10° SW 07:18:28 88° NW 07:21:43 10° NE daylight
07 Mar - 08:52:47 10° WNW 08:55:16 20° NNW 08:57:45 10° NNE daylight
07 Mar - 10:30:43 10° NNW 10:32:36 14° N 10:34:30 10° NE daylight
07 Mar - 12:06:57 10° NW 12:09:48 28° NNE 12:12:41 10° E daylight
07 Mar - 13:43:14 10° WNW 13:46:20 42° SW 13:49:24 10° SSE daylight
08 Mar - 07:22:28 10° SW 07:25:35 46° SE 07:28:42 10° ENE daylight
08 Mar - 08:59:18 10° W 09:02:07 27° NNW 09:04:57 10° NE daylight
08 Mar - 10:37:29 10° NW 10:39:21 14° N 10:41:14 10° NNE daylight
08 Mar - 12:14:08 10° NW 12:16:40 21° NNE 12:19:13 10° ENE daylight
08 Mar - 13:50:12 10° NW 13:53:26 85° SW 13:56:40 10° SE daylight
09 Mar - 06:30:04 10° S 06:32:43 24° SE 06:35:24 10° E visible
09 Mar - 08:05:55 10° W 08:09:01 41° NNW 08:12:06 10° NE daylight
09 Mar - 09:44:01 10° NW 09:46:05 16° N 09:48:09 10° NNE daylight
09 Mar - 11:21:15 10° NNW 11:23:26 17° NNE 11:25:39 10° NE daylight
09 Mar - 12:57:16 10° NW 13:00:26 51° NNE 13:03:36 10° ESE daylight
09 Mar - 14:34:17 10° W 14:36:38 18° SW 14:38:55 10° S daylight
10 Mar - 05:38:28 10° SSE 05:39:53 13° SE 05:41:25 10° ESE visible
10 Mar - 07:12:44 10° WSW 07:15:57 74° NW 07:19:11 10° NE daylight
10 Mar - 08:50:25 10° WNW 08:52:49 19° NNW 08:55:12 10° NNE daylight
10 Mar - 10:28:14 10° NNW 10:30:09 15° N 10:32:05 10° NE daylight
10 Mar - 12:04:22 10° NW 12:07:18 31° NNE 12:10:16 10° E daylight
10 Mar - 13:40:46 10° WNW 13:43:45 35° SW 13:46:44 10° SSE daylight
11 Mar - 06:19:46 10° SW 06:22:56 56° SE 06:26:07 10° ENE visible
11 Mar - 07:56:49 10° W 07:59:33 25° NNW 08:02:18 10° NE daylight
11 Mar - 09:34:57 10° NW 09:36:49 14° N 09:38:40 10° NE daylight
11 Mar - 11:11:29 10° NW 11:14:06 22° NNE 11:16:44 10° ENE daylight
11 Mar - 12:47:34 10° WNW 12:50:48 71° SW 12:54:00 10° SE daylight
12 Mar - 05:27:09 10° SSW 05:29:58 28° SE 05:32:50 10° ENE visible
12 Mar - 07:03:18 10° W 07:06:20 36° NNW 07:09:23 10° NE daylight
12 Mar - 08:41:26 10° NW 08:43:27 15° N 08:45:26 10° NNE daylight
12 Mar - 10:18:31 10° NNW 10:20:47 17° NNE 10:23:05 10° ENE daylight
12 Mar - 11:54:31 10° NW 11:57:43 60° NNE 12:00:55 10° ESE daylight
12 Mar - 13:31:48 10° W 13:33:51 15° SW 13:35:49 10° S daylight
13 Mar - 04:35:09 10° SSE 04:37:02 15° SE 04:39:01 10° E visible
13 Mar - 06:09:57 10° WSW 06:13:10 63° NNW 06:16:23 10° NE visible
13 Mar - 07:47:46 10° WNW 07:50:04 18° NNW 07:52:22 10° NNE daylight
13 Mar - 09:25:26 10° NNW 09:27:25 15° N 09:29:24 10° NE daylight
13 Mar - 11:01:31 10° NW 11:04:32 35° NNE 11:07:33 10° E daylight
13 Mar - 12:38:02 10° WNW 12:40:54 29° SW 12:43:45 10° SSE daylight
14 Mar - 05:16:50 10° SW 05:20:03 68° SE 05:23:16 10° ENE visible
14 Mar - 06:54:03 10° WNW 06:56:43 23° NNW 06:59:22 10° NE daylight
14 Mar - 08:32:08 10° NW 08:33:59 14° N 08:35:51 10° NE daylight
14 Mar - 10:08:32 10° NW 10:11:14 24° NNE 10:13:58 10° ENE daylight
14 Mar - 11:44:40 10° WNW 11:47:52 59° SW 11:51:02 10° SE daylight
15 Mar - 04:24:01 10° SSW 04:26:58 33° SE 04:29:56 10° ENE visible
15 Mar - 06:00:25 10° W 06:03:23 32° NNW 06:06:21 10° NE visible
15 Mar - 07:38:34 10° NW 07:40:32 15° N 07:42:28 10° NNE daylight
15 Mar - 09:15:30 10° NNW 09:17:51 18° NNE 09:20:14 10° ENE daylight
15 Mar - 10:51:30 10° NW 10:54:44 71° NE 10:57:56 10° ESE daylight
15 Mar - 12:29:09 10° W 12:30:47 13° SW 12:32:20 10° SSW daylight
